�������l�o���
Date,Time,MP-1(��Sv/h),MP-2(��Sv/h),MP-3(��Sv/h),MP-4(��Sv/h),MP-5(��Sv/h),MP-6(��Sv/h),MP-7(��Sv/h),MP-8(��Sv/h),����,����(m/s),���J
2017/08/26,00:00,0.942,1.480,0.983,1.771,1.217,0.517,0.946,0.870,�k,1.5,��
2017/08/26,00:10,0.940,1.480,0.983,1.775,1.218,0.517,0.945,0.871,�k,0.8,��
2017/08/26,00:20,0.942,1.480,0.982,1.772,1.219,0.520,0.944,0.871,�k,0.9,��
2017/08/26,00:30,0.942,1.477,0.984,1.775,1.219,0.518,0.945,0.871,�k,0.9,��
2017/08/26,00:40,0.942,1.478,0.983,1.774,1.218,0.519,0.945,0.871,�k��,1.1,��
2017/08/26,00:50,0.940,1.482,0.984,1.776,1.219,0.518,0.944,0.870,�k��,1.4,��
2017/08/26,01:00,0.941,1.479,0.983,1.772,1.217,0.518,0.944,0.871,�k,2.0,��
2017/08/26,01:10,0.942,1.478,0.983,1.775,1.219,0.519,0.944,0.870,�k�k��,1.1,��
2017/08/26,01:20,0.940,1.480,0.983,1.777,1.217,0.520,0.946,0.871,�k,0.6,��
2017/08/26,01:30,0.941,1.481,0.982,1.775,1.220,0.519,0.944,0.871,-,CALM,��
2017/08/26,01:40,0.941,1.480,0.983,1.773,1.219,0.518,0.944,0.872,�k�k��,0.9,��
2017/08/26,01:50,0.942,1.480,0.983,1.772,1.218,0.519,0.946,0.872,�k�k��,0.6,��
2017/08/26,02:00,0.941,1.481,0.982,1.776,1.218,0.519,0.945,0.872,�k��,0.6,��
2017/08/26,02:10,0.940,1.479,0.983,1.774,1.221,0.520,0.946,0.871,�k��,1.1,��
2017/08/26,02:20,0.942,1.479,0.982,1.773,1.219,0.520,0.945,0.872,�k��,0.9,��
2017/08/26,02:30,0.938,1.479,0.982,1.775,1.218,0.518,0.946,0.871,���k��,0.9,��
2017/08/26,02:40,0.942,1.481,0.982,1.776,1.219,0.519,0.945,0.872,�k��,1.2,��
2017/08/26,02:50,0.940,1.480,0.981,1.774,1.218,0.518,0.946,0.872,�k��,0.6,��
2017/08/26,03:00,0.940,1.477,0.984,1.775,1.219,0.519,0.944,0.870,-,CALM,��
2017/08/26,03:10,0.940,1.483,0.982,1.771,1.217,0.519,0.945,0.874,-,CALM,��
2017/08/26,03:20,0.939,1.477,0.983,1.775,1.219,0.519,0.944,0.873,-,CALM,��
2017/08/26,03:30,0.941,1.481,0.982,1.776,1.218,0.520,0.944,0.874,���쐼,0.6,��
2017/08/26,03:40,0.942,1.479,0.984,1.775,1.220,0.517,0.945,0.873,�쐼,0.6,��
2017/08/26,03:50,0.942,1.482,0.981,1.775,1.218,0.519,0.944,0.873,-,CALM,��
2017/08/26,04:00,0.941,1.477,0.981,1.776,1.219,0.518,0.946,0.872,�쓌,1.2,��
2017/08/26,04:10,0.938,1.480,0.982,1.776,1.219,0.519,0.944,0.872,��쓌,0.8,��
2017/08/26,04:20,0.942,1.479,0.982,1.775,1.219,0.520,0.943,0.873,��쐼,0.9,��
2017/08/26,04:30,0.943,1.482,0.981,1.775,1.220,0.519,0.945,0.873,��쐼,0.9,��
2017/08/26,04:40,0.941,1.482,0.983,1.772,1.218,0.519,0.942,0.873,-,CALM,��
2017/08/26,04:50,0.941,1.481,0.984,1.776,1.219,0.519,0.944,0.872,��,0.8,��
2017/08/26,05:00,0.941,1.479,0.984,1.775,1.220,0.519,0.944,0.872,-,CALM,��
2017/08/26,05:10,0.943,1.482,0.983,1.773,1.218,0.518,0.945,0.871,��,0.8,��
2017/08/26,05:20,0.941,1.482,0.983,1.774,1.219,0.519,0.946,0.873,���k��,0.8,��
2017/08/26,05:30,0.941,1.482,0.985,1.775,1.216,0.519,0.944,0.871,�k��,0.6,��
2017/08/26,05:40,0.941,1.483,0.981,1.776,1.215,0.518,0.943,0.873,�k��,0.6,��
2017/08/26,05:50,0.943,1.480,0.982,1.775,1.219,0.520,0.944,0.872,�k�k��,0.6,��
2017/08/26,06:00,0.941,1.482,0.982,1.775,1.219,0.521,0.945,0.871,-,CALM,��
2017/08/26,06:10,0.942,1.480,0.984,1.779,1.219,0.518,0.944,0.873,-,CALM,��
2017/08/26,06:20,0.941,1.481,0.983,1.776,1.219,0.519,0.945,0.872,�k�k��,1.7,��
2017/08/26,06:30,0.940,1.481,0.981,1.775,1.220,0.519,0.945,0.874,�k,1.4,��
2017/08/26,06:40,0.943,1.484,0.985,1.778,1.218,0.519,0.944,0.874,�k�k��,2.6,��
2017/08/26,06:50,0.941,1.481,0.985,1.777,1.218,0.519,0.944,0.872,�k�k��,4.7,��
2017/08/26,07:00,0.942,1.485,0.986,1.777,1.217,0.520,0.947,0.873,�k,5.7,��
2017/08/26,07:10,0.941,1.484,0.987,1.778,1.220,0.519,0.946,0.875,�k,5.6,�L
2017/08/26,07:20,0.937,1.481,0.983,1.778,1.218,0.518,0.942,0.873,�k,8.3,�L
2017/08/26,07:30,0.937,1.480,0.980,1.777,1.216,0.517,0.944,0.873,�k�k��,8.1,�L
2017/08/26,07:40,0.938,1.479,0.979,1.777,1.218,0.517,0.940,0.871,�k�k��,8.6,�L
2017/08/26,07:50,0.934,1.468,0.978,1.775,1.217,0.517,0.942,0.872,�k�k��,8.6,�L
2017/08/26,08:00,0.928,1.455,0.971,1.761,1.202,0.514,0.940,0.871,�k�k��,6.3,�L
2017/08/26,08:10,0.925,1.447,0.967,1.754,1.196,0.513,0.937,0.869,�k,6.0,�L
2017/08/26,08:20,0.923,1.447,0.968,1.753,1.196,0.515,0.935,0.868,�k,5.5,�L
2017/08/26,08:30,0.925,1.449,0.967,1.753,1.196,0.514,0.938,0.866,�k�k��,3.2,�L
2017/08/26,08:40,0.925,1.449,0.967,1.750,1.198,0.514,0.936,0.865,�k,4.2,�L
2017/08/26,08:50,0.926,1.450,0.966,1.753,1.200,0.514,0.937,0.866,�k�k��,3.0,�L
2017/08/26,09:00,0.924,1.450,0.967,1.753,1.197,0.513,0.936,0.865,�k�k��,2.3,�L
2017/08/26,09:10,0.925,1.450,0.968,1.750,1.198,0.515,0.936,0.865,�k�k��,1.7,�L
2017/08/26,09:20,0.925,1.449,0.969,1.751,1.197,0.516,0.937,0.865,�k,0.6,��
2017/08/26,09:30,0.924,1.448,0.967,1.750,1.199,0.515,0.937,0.864,�쐼,1.2,�L
2017/08/26,09:40,0.925,1.448,0.966,1.753,1.199,0.514,0.936,0.866,-,CALM,�L
2017/08/26,09:50,0.926,1.448,0.969,1.754,1.201,0.513,0.936,0.866,��쓌,1.4,�L
2017/08/26,10:00,0.924,1.449,0.966,1.750,1.196,0.513,0.936,0.867,��쐼,2.3,�L
2017/08/26,10:10,0.924,1.450,0.967,1.749,1.199,0.514,0.938,0.866,�쐼,2.6,�L
2017/08/26,10:20,0.927,1.452,0.969,1.753,1.199,0.514,0.938,0.869,��쐼,2.6,�L
2017/08/26,10:30,0.926,1.452,0.968,1.750,1.199,0.514,0.939,0.866,�쐼,2.3,�L
2017/08/26,10:40,0.926,1.450,0.968,1.752,1.201,0.513,0.939,0.868,���k��,1.7,��
2017/08/26,10:50,0.926,1.452,0.968,1.753,1.200,0.514,0.938,0.867,��,1.1,��
2017/08/26,11:00,0.926,1.450,0.967,1.751,1.200,0.514,0.937,0.868,�쐼,1.1,��
2017/08/26,11:10,0.927,1.450,0.967,1.754,1.199,0.513,0.937,0.869,��쐼,1.4,��
2017/08/26,11:20,0.925,1.451,0.969,1.753,1.199,0.513,0.939,0.867,��쓌,1.4,��
2017/08/26,11:30,0.927,1.450,0.970,1.755,1.198,0.514,0.938,0.867,�쓌,1.1,��
2017/08/26,11:40,0.926,1.448,0.968,1.754,1.202,0.515,0.938,0.868,�쓌,0.8,��
2017/08/26,11:50,0.926,1.452,0.969,1.753,1.204,0.512,0.938,0.868,�쓌,1.2,��
2017/08/26,12:00,0.927,1.452,0.967,1.754,1.201,0.513,0.938,0.867,��,1.2,��
2017/08/26,12:10,0.926,1.452,0.970,1.753,1.202,0.512,0.938,0.866,�쓌,2.2,��
2017/08/26,12:20,0.927,1.454,0.970,1.753,1.201,0.515,0.941,0.867,��쓌,1.7,��
2017/08/26,12:30,0.925,1.456,0.967,1.754,1.201,0.513,0.939,0.868,��,1.1,��
2017/08/26,12:40,0.927,1.455,0.970,1.753,1.203,0.514,0.939,0.867,�쓌,1.1,��
2017/08/26,12:50,0.928,1.455,0.970,1.755,1.202,0.513,0.939,0.867,�k�k��,0.6,��
2017/08/26,13:00,0.927,1.457,0.969,1.756,1.203,0.515,0.938,0.868,���k��,1.7,��
2017/08/26,13:10,0.931,1.456,0.970,1.757,1.204,0.514,0.939,0.867,��,3.3,��
2017/08/26,13:20,0.930,1.457,0.973,1.754,1.201,0.514,0.938,0.870,��,5.4,��
2017/08/26,13:30,0.932,1.459,0.970,1.756,1.205,0.515,0.940,0.868,��,8.0,��
2017/08/26,13:40,0.930,1.456,0.973,1.761,1.206,0.516,0.941,0.868,��,4.9,��
2017/08/26,13:50,0.933,1.459,0.974,1.760,1.206,0.514,0.939,0.867,��,4.9,��
2017/08/26,14:00,0.933,1.460,0.976,1.759,1.205,0.516,0.941,0.867,���k��,5.3,��
2017/08/26,14:10,0.933,1.457,0.976,1.761,1.207,0.515,0.941,0.869,���k��,6.1,��
2017/08/26,14:20,0.934,1.461,0.973,1.762,1.207,0.519,0.941,0.870,��,5.2,��
2017/08/26,14:30,0.934,1.458,0.973,1.763,1.206,0.517,0.941,0.868,��,5.4,��
2017/08/26,14:40,0.934,1.463,0.973,1.764,1.209,0.517,0.941,0.869,���k��,6.1,��
2017/08/26,14:50,0.936,1.463,0.975,1.762,1.212,0.517,0.942,0.868,��,4.6,��
2017/08/26,15:00,0.937,1.460,0.976,1.761,1.210,0.518,0.942,0.868,��,5.3,��
2017/08/26,15:10,0.937,1.465,0.977,1.764,1.212,0.518,0.943,0.868,��,5.6,��
2017/08/26,15:20,0.938,1.467,0.978,1.766,1.210,0.517,0.940,0.868,��,5.2,��
2017/08/26,15:30,0.937,1.465,0.976,1.766,1.208,0.518,0.942,0.868,��,4.8,��
2017/08/26,15:40,0.937,1.467,0.978,1.765,1.214,0.518,0.942,0.868,��,3.8,��
2017/08/26,15:50,0.936,1.466,0.978,1.762,1.210,0.518,0.943,0.869,���k��,4.1,��
2017/08/26,16:00,0.934,1.466,0.977,1.766,1.209,0.518,0.943,0.867,��,4.0,��
2017/08/26,16:10,0.938,1.466,0.978,1.764,1.212,0.520,0.941,0.868,���k��,3.9,��
2017/08/26,16:20,0.936,1.467,0.979,1.767,1.213,0.519,0.944,0.869,���k��,4.8,��
2017/08/26,16:30,0.940,1.469,0.978,1.765,1.213,0.521,0.943,0.871,���k��,4.5,��
2017/08/26,16:40,0.937,1.471,0.980,1.765,1.211,0.520,0.944,0.869,���k��,6.2,��
2017/08/26,16:50,0.939,1.472,0.979,1.769,1.213,0.519,0.943,0.869,���k��,7.7,��
2017/08/26,17:00,0.938,1.473,0.982,1.773,1.213,0.519,0.942,0.870,���k��,7.0,��
2017/08/26,17:10,0.940,1.471,0.981,1.772,1.209,0.519,0.944,0.871,���k��,6.0,��
2017/08/26,17:20,0.938,1.469,0.979,1.766,1.211,0.519,0.942,0.871,���k��,5.2,��
2017/08/26,17:30,0.936,1.468,0.981,1.769,1.212,0.518,0.943,0.869,���k��,3.5,��
2017/08/26,17:40,0.937,1.470,0.979,1.770,1.211,0.519,0.944,0.870,���k��,3.9,��
2017/08/26,17:50,0.938,1.471,0.979,1.769,1.212,0.517,0.942,0.870,��,3.7,��
2017/08/26,18:00,0.938,1.468,0.980,1.768,1.215,0.517,0.942,0.870,��,4.1,��
2017/08/26,18:10,0.937,1.472,0.979,1.766,1.213,0.518,0.945,0.870,��,4.7,��
2017/08/26,18:20,0.938,1.468,0.980,1.768,1.214,0.518,0.943,0.872,���k��,4.5,��
2017/08/26,18:30,0.938,1.467,0.981,1.767,1.213,0.518,0.944,0.872,���k��,5.7,��
2017/08/26,18:40,0.936,1.472,0.980,1.772,1.211,0.519,0.945,0.870,���k��,6.7,��
2017/08/26,18:50,0.938,1.472,0.982,1.769,1.215,0.519,0.945,0.872,���k��,4.4,��
2017/08/26,19:00,0.940,1.470,0.980,1.768,1.213,0.518,0.946,0.872,���k��,3.0,��
2017/08/26,19:10,0.939,1.473,0.980,1.768,1.215,0.520,0.944,0.872,�k��,4.1,��
2017/08/26,19:20,0.936,1.473,0.981,1.767,1.214,0.520,0.945,0.871,�k��,5.1,��
2017/08/26,19:30,0.938,1.472,0.981,1.768,1.214,0.519,0.943,0.873,�k��,7.2,��
2017/08/26,19:40,0.938,1.472,0.981,1.771,1.211,0.518,0.945,0.872,�k��,8.8,��
2017/08/26,19:50,0.938,1.471,0.981,1.773,1.215,0.519,0.942,0.872,�k��,7.2,��
2017/08/26,20:00,0.936,1.474,0.980,1.774,1.212,0.518,0.945,0.872,�k��,8.3,��
2017/08/26,20:10,0.939,1.471,0.982,1.772,1.215,0.517,0.945,0.873,���k��,8.4,��
2017/08/26,20:20,0.939,1.474,0.983,1.774,1.214,0.517,0.945,0.872,���k��,9.4,��
2017/08/26,20:30,0.936,1.475,0.982,1.771,1.214,0.519,0.944,0.872,���k��,8.4,��
2017/08/26,20:40,0.936,1.474,0.981,1.773,1.216,0.518,0.943,0.871,���k��,7.5,��
2017/08/26,20:50,0.936,1.471,0.983,1.769,1.215,0.517,0.945,0.871,���k��,8.7,��
2017/08/26,21:00,0.935,1.474,0.983,1.773,1.216,0.519,0.944,0.872,���k��,5.5,��
2017/08/26,21:10,0.935,1.474,0.982,1.772,1.214,0.518,0.944,0.869,�k��,3.3,��
2017/08/26,21:20,0.936,1.474,0.981,1.775,1.214,0.516,0.944,0.872,�k��,5.2,��
2017/08/26,21:30,0.936,1.474,0.982,1.772,1.214,0.519,0.944,0.871,�k��,5.0,��
2017/08/26,21:40,0.937,1.472,0.982,1.772,1.214,0.519,0.944,0.868,���k��,4.3,��
2017/08/26,21:50,0.935,1.471,0.983,1.773,1.214,0.518,0.943,0.872,�k��,3.4,��
2017/08/26,22:00,0.935,1.473,0.979,1.775,1.215,0.516,0.943,0.872,�k��,3.9,�L
2017/08/26,22:10,0.936,1.474,0.980,1.773,1.213,0.516,0.944,0.870,�k��,5.0,��
2017/08/26,22:20,0.936,1.474,0.980,1.773,1.214,0.516,0.944,0.871,�k��,5.0,��
2017/08/26,22:30,0.934,1.474,0.978,1.773,1.214,0.517,0.945,0.871,�k��,4.8,��
2017/08/26,22:40,0.934,1.477,0.980,1.772,1.216,0.517,0.943,0.873,�k��,5.5,��
2017/08/26,22:50,0.935,1.476,0.979,1.772,1.216,0.518,0.944,0.871,�k��,4.6,��
2017/08/26,23:00,0.935,1.475,0.977,1.772,1.214,0.516,0.943,0.871,�k��,3.7,��
2017/08/26,23:10,0.935,1.472,0.978,1.774,1.216,0.516,0.943,0.873,�k��,4.0,��
2017/08/26,23:20,0.936,1.473,0.979,1.771,1.217,0.517,0.944,0.871,�k�k��,3.0,��
2017/08/26,23:30,0.935,1.474,0.979,1.775,1.213,0.517,0.945,0.871,�k,3.8,��
2017/08/26,23:40,0.938,1.475,0.979,1.774,1.215,0.517,0.944,0.872,�k,4.3,��
2017/08/26,23:50,0.934,1.474,0.979,1.773,1.213,0.517,0.944,0.870,�k,4.2,��
